Weather in Battambang

Cambodia     13°05′22″N   103°12′18″E
temp.,
°C
wind,
m/s
gust,
m/s
humid.,
%
clouds,
%
prec.,
mm/h
press.,
hPa
HPBL,
m
14 june, mon
mon1401:00+24sw31089100 1.2 1008256
04:00+24sw31089100 0.0 1007287
07:00+26ssw3108757 0.0 1008418
10:00+31wsw696013 0.0 10091448
13:00+33wsw794915 0.0 10072074
16:00+32sw785820 0.0 10051424
19:00+27wsw5118093 0.0 1006437
22:00+26sw512775 0.0 1009453
15 june, tue
tue1501:00+25sw411816 0.0 1007406
04:00+25sw3108352 0.0 1006313
07:00+26sw4108153 0.0 1008447
10:00+31sw7956100 0.0 10091384
13:00+34wsw71049100 0.0 10072073
16:00+32wsw6854100 0.0 10051789
19:00+28wsw4973100 0.1 1007349
22:00+26wsw3683100 0.0 1009206
16 june, wed
wed1601:00+25wsw3885100 0.0 1007260
04:00+25sw3883100 0.0 1007286
07:00+26sw3980100 0.0 1008405
10:00+31sw5758100 0.0 10091233
13:00+33wsw6751100 0.0 10071771
16:00+32sw7856100 0.0 10071124
19:00+27wsw6117763 0.0 1009419
22:00+26wsw51179100 0.0 1010392
17 june, thu
thu1701:00+24wsw31090100 1.6 1010335
04:00+24sw2793100 4.6 1009235
07:00+24ssw41093100 11.0 1011391
10:00+27sw4881100 3.0 1011503
13:00+30sw566779 3.0 1009955
16:00+29sw5668100 0.0 1008446
19:00+26wsw2478100 0.0 1008114
22:00+26wsw247795 0.0 1010120
18 june, fri
fri1801:00+25sw378197 0.0 1009206
04:00+25ssw228294 0.0 100948
07:00+26wsw248090 0.0 1010179
10:00+31sw34625 0.0 1010911
13:00+34wsw234978 0.0 10071790
16:00+31sw586398 0.0 1006441
19:00+28wsw5107362 0.0 1007332
22:00+27sw49775 0.0 1008246